Flag for China Weather past 2 weeks in Suzhou, Jiangsu, China

Now
43 °F

Partly sunny.


Feels Like: 41 °F
Forecast: 37 / 49 °F
Wind: 3 mph from Northwest

Location: Shanghai Hongqiao Airport

Current Time: Feb 1, 2015 at 12:22:33 PM

Latest Report: Feb 1, 2015 at 12:00 PM


Visibility: N/A

Pressure: 30.54 "Hg

Humidity: 66%

Dew point: 32 °F

Location of SuzhouLocation

Historic Weather in Suzhou — Graph

°F

Suzhou temperature yesterday

Maximum temperature yesterday: 45 °F (at 12:30 PM)
Minimum temperature yesterday: 34 °F (at 4:30 AM)
Average temperature yesterday: 38 °F

Past Weeks' High & Low Weather Summary

 TemperatureHumidityPressure
High61 °F (Jan 24, 1:00 PM)100% (Jan 28, 12:30 AM)30.63 "Hg (Jan 28, 12:30 AM)
Low32 °F (Jan 23, 6:30 AM)24% (Jan 19, 2:30 PM)30.07 "Hg (Jan 21, 2:30 PM)
Average44 °F71%30.31 "Hg
* Reported Jan 17 10:00 AM — Feb 1 10:30 AM, Suzhou, Weather by CustomWeather, © 2014

Note: Actual official high and low records may vary slightly from our data, if they occured in-between our weather recording intervals... More about our weather records

Advertising

Suzhou weather history for previous 24 hours

 ConditionsComfort  
Time TempWeatherWind HumidityBarometerVisibility
10:30 AM
Feb 1
41 °FScattered clouds.6 mph66%30.57 "HgN/A
10:00 AM41 °FPartly sunny.6 mph66%30.57 "HgN/A
9:30 AM39 °FScattered clouds.6 mph70%30.57 "HgN/A
9:00 AM39 °FSunny.8 mph70%30.57 "Hg10 mi
8:30 AM39 °FSunny.6 mph65%30.57 "Hg10 mi
8:00 AM37 °FSunny.6 mph70%30.57 "Hg10 mi
7:30 AM37 °FSunny.6 mph70%30.57 "Hg10 mi
7:00 AM37 °FSunny.6 mph70%30.54 "Hg10 mi
6:30 AM36 °FClear.8 mph75%30.54 "Hg10 mi
6:00 AM36 °FClear.8 mph70%30.54 "Hg10 mi
5:30 AM37 °FClear.6 mph65%30.54 "Hg10 mi
4:30 AM36 °FClear.8 mph70%30.54 "Hg10 mi
4:00 AM36 °FClear.8 mph70%30.57 "Hg10 mi
3:30 AM36 °FClear.6 mph70%30.57 "Hg10 mi
3:00 AM36 °FClear.8 mph70%30.57 "Hg10 mi
2:30 AM37 °FClear.8 mph65%30.57 "Hg10 mi
2:00 AM37 °FClear.6 mph65%30.57 "Hg10 mi
1:30 AM36 °FClear.6 mph70%30.57 "Hg10 mi
1:00 AM36 °FClear.8 mph70%30.57 "Hg10 mi
12:30 AM37 °FClear.8 mph65%30.57 "Hg10 mi
12:00 AM36 °FClear.8 mph70%30.57 "Hg10 mi
11:30 PM
Jan 31
37 °FClear.8 mph65%30.60 "Hg10 mi
11:00 PM37 °FClear.8 mph60%30.60 "Hg10 mi
10:30 PM37 °FPassing clouds.8 mph60%30.60 "HgN/A
10:00 PM37 °FPassing clouds.8 mph60%30.60 "HgN/A
9:30 PM37 °FClear.10 mph60%30.60 "Hg10 mi
9:00 PM37 °FClear.13 mph60%30.57 "Hg10 mi
8:30 PM37 °FClear.13 mph56%30.60 "Hg10 mi
8:00 PM37 °FClear.13 mph56%30.60 "Hg10 mi
7:30 PM37 °FClear.10 mph60%30.60 "Hg10 mi
7:00 PM37 °FClear.13 mph60%30.60 "Hg10 mi
6:30 PM37 °FClear.13 mph60%30.60 "Hg10 mi
6:00 PM37 °FPassing clouds.13 mph60%30.57 "HgN/A
5:30 PM39 °FPassing clouds.13 mph56%30.57 "HgN/A
5:00 PM39 °FScattered clouds.10 mph56%30.57 "HgN/A
4:30 PM39 °FScattered clouds.13 mph56%30.54 "HgN/A
4:00 PM41 °FScattered clouds.13 mph53%30.54 "HgN/A
3:30 PM41 °FPassing clouds.13 mph53%30.54 "HgN/A
3:00 PM41 °FSunny.10 mph49%30.54 "Hg10 mi
2:30 PM43 °FPassing clouds.13 mph46%30.54 "HgN/A
2:00 PM43 °FScattered clouds.8 mph42%30.54 "HgN/A
1:30 PM45 °FPassing clouds.10 mph42%30.54 "HgN/A
1:00 PM45 °FSunny.13 mph37%30.54 "Hg10 mi
12:30 PM45 °FPassing clouds.10 mph37%30.57 "HgN/A
12:00 PM43 °FPassing clouds.8 mph42%30.60 "HgN/A
Weather by CustomWeather, © 2014

See weather overviewHow to use our weather pages